Year,Month,Day,Hour,Minute,Value (Times are PST for windgust in km/hr)
2010,04,26,00,00,8.10
2010,04,26,00,01,8.10
2010,04,26,00,02,4.80
2010,04,26,00,03,8.10
2010,04,26,00,04,8.10
2010,04,26,00,05,8.10
2010,04,26,00,06,8.10
2010,04,26,00,07,9.60
2010,04,26,00,08,9.60
2010,04,26,00,09,8.10
2010,04,26,00,10,8.10
2010,04,26,00,11,8.10
2010,04,26,00,12,8.10
2010,04,26,00,13,8.10
2010,04,26,00,14,8.10
2010,04,26,00,15,8.10
2010,04,26,00,16,8.10
2010,04,26,00,17,9.60
2010,04,26,00,18,8.10
2010,04,26,00,19,9.60
2010,04,26,00,20,8.10
2010,04,26,00,21,8.10
2010,04,26,00,22,8.10
2010,04,26,00,23,6.40
2010,04,26,00,24,9.60
2010,04,26,00,25,11.30
2010,04,26,00,26,9.60
2010,04,26,00,27,14.50
2010,04,26,00,28,12.90
2010,04,26,00,29,11.30
2010,04,26,00,30,9.60
2010,04,26,00,31,8.10
2010,04,26,00,32,8.10
2010,04,26,00,33,8.10
2010,04,26,00,34,8.10
2010,04,26,00,35,9.60
2010,04,26,00,36,8.10
2010,04,26,00,37,6.40
2010,04,26,00,38,8.10
2010,04,26,00,39,8.10
2010,04,26,00,40,9.60
2010,04,26,00,41,9.60
2010,04,26,00,42,6.40
2010,04,26,00,43,8.10
2010,04,26,00,44,11.30
2010,04,26,00,45,9.60
2010,04,26,00,46,11.30
2010,04,26,00,47,11.30
2010,04,26,00,48,14.50
2010,04,26,00,49,14.50
2010,04,26,00,50,11.30
2010,04,26,00,51,12.90
2010,04,26,00,52,14.50
2010,04,26,00,53,12.90
2010,04,26,00,54,8.10
2010,04,26,00,55,9.60
2010,04,26,00,56,9.60
2010,04,26,00,57,9.60
2010,04,26,00,58,11.30
2010,04,26,00,59,9.60
2010,04,26,01,00,9.60
2010,04,26,01,01,9.60
2010,04,26,01,02,11.30
2010,04,26,01,03,11.30
2010,04,26,01,04,12.90
2010,04,26,01,05,11.30
2010,04,26,01,06,14.50
2010,04,26,01,07,12.90
2010,04,26,01,08,17.70
2010,04,26,01,09,16.10
2010,04,26,01,10,11.30
2010,04,26,01,11,12.90
2010,04,26,01,12,11.30
2010,04,26,01,13,11.30
2010,04,26,01,14,12.90
2010,04,26,01,15,14.50
2010,04,26,01,16,12.90
2010,04,26,01,17,9.60
2010,04,26,01,18,14.50
2010,04,26,01,19,16.10
2010,04,26,01,20,14.50
2010,04,26,01,21,11.30
2010,04,26,01,22,14.50
2010,04,26,01,23,11.30
2010,04,26,01,24,16.10
2010,04,26,01,25,14.50
2010,04,26,01,26,14.50
2010,04,26,01,27,14.50
2010,04,26,01,28,8.10
2010,04,26,01,29,8.10
2010,04,26,01,30,16.10
2010,04,26,01,31,12.90
2010,04,26,01,32,12.90
2010,04,26,01,33,16.10
2010,04,26,01,34,19.30
2010,04,26,01,35,17.70
2010,04,26,01,36,19.30
2010,04,26,01,37,20.90
2010,04,26,01,38,22.50
2010,04,26,01,39,19.30
2010,04,26,01,40,20.90
2010,04,26,01,41,19.30
2010,04,26,01,42,20.90
2010,04,26,01,43,17.70
2010,04,26,01,44,11.30
2010,04,26,01,45,11.30
2010,04,26,01,46,19.30
2010,04,26,01,47,16.10
2010,04,26,01,48,12.90
2010,04,26,01,49,16.10
2010,04,26,01,50,16.10
2010,04,26,01,51,14.50
2010,04,26,01,52,16.10
2010,04,26,01,53,16.10
2010,04,26,01,54,12.90
2010,04,26,01,55,14.50
2010,04,26,01,56,17.70
2010,04,26,01,57,14.50
2010,04,26,01,58,9.60
2010,04,26,01,59,16.10
2010,04,26,02,00,14.50
2010,04,26,02,01,11.30
2010,04,26,02,02,14.50
2010,04,26,02,03,14.50
2010,04,26,02,04,16.10
2010,04,26,02,05,17.70
2010,04,26,02,06,19.30
2010,04,26,02,07,16.10
2010,04,26,02,08,17.70
2010,04,26,02,09,17.70
2010,04,26,02,10,19.30
2010,04,26,02,11,19.30
2010,04,26,02,12,17.70
2010,04,26,02,13,14.50
2010,04,26,02,14,11.30
2010,04,26,02,15,16.10
2010,04,26,02,16,16.10
2010,04,26,02,17,16.10
2010,04,26,02,18,16.10
2010,04,26,02,19,16.10
2010,04,26,02,20,14.50
2010,04,26,02,21,14.50
2010,04,26,02,22,16.10
2010,04,26,02,23,14.50
2010,04,26,02,24,16.10
2010,04,26,02,25,16.10
2010,04,26,02,26,17.70
2010,04,26,02,27,19.30
2010,04,26,02,28,17.70
2010,04,26,02,29,17.70
2010,04,26,02,30,12.90
2010,04,26,02,31,17.70
2010,04,26,02,32,16.10
2010,04,26,02,33,16.10
2010,04,26,02,34,19.30
2010,04,26,02,35,17.70
2010,04,26,02,36,17.70
2010,04,26,02,37,16.10
2010,04,26,02,38,11.30
2010,04,26,02,39,11.30
2010,04,26,02,40,14.50
2010,04,26,02,41,12.90
2010,04,26,02,42,11.30
2010,04,26,02,43,8.10
2010,04,26,02,44,8.10
2010,04,26,02,45,9.60
2010,04,26,02,46,9.60
2010,04,26,02,47,11.30
2010,04,26,02,48,8.10
2010,04,26,02,49,8.10
2010,04,26,02,50,11.30
2010,04,26,02,51,16.10
2010,04,26,02,52,8.10
2010,04,26,02,53,8.10
2010,04,26,02,54,8.10
2010,04,26,02,55,8.10
2010,04,26,02,56,9.60
2010,04,26,02,57,9.60
2010,04,26,02,58,9.60
2010,04,26,02,59,14.50
2010,04,26,03,00,14.50
2010,04,26,03,01,9.60
2010,04,26,03,02,9.60
2010,04,26,03,03,6.40
2010,04,26,03,04,11.30
2010,04,26,03,05,9.60
2010,04,26,03,06,9.60
2010,04,26,03,07,9.60
2010,04,26,03,08,11.30
2010,04,26,03,09,11.30
2010,04,26,03,10,8.10
2010,04,26,03,11,4.80
2010,04,26,03,12,12.90
2010,04,26,03,13,12.90
2010,04,26,03,14,9.60
2010,04,26,03,15,9.60
2010,04,26,03,16,16.10
2010,04,26,03,17,9.60
2010,04,26,03,18,14.50
2010,04,26,03,19,9.60
2010,04,26,03,20,9.60
2010,04,26,03,21,8.10
2010,04,26,03,22,11.30
2010,04,26,03,23,11.30
2010,04,26,03,24,16.10
2010,04,26,03,25,11.30
2010,04,26,03,26,9.60
2010,04,26,03,27,9.60
2010,04,26,03,28,11.30
2010,04,26,03,29,8.10
2010,04,26,03,30,11.30
2010,04,26,03,31,6.40
2010,04,26,03,32,14.50
2010,04,26,03,33,12.90
2010,04,26,03,34,16.10
2010,04,26,03,35,20.90
2010,04,26,03,36,19.30
2010,04,26,03,37,17.70
2010,04,26,03,38,16.10
2010,04,26,03,39,17.70
2010,04,26,03,40,16.10
2010,04,26,03,41,19.30
2010,04,26,03,42,19.30
2010,04,26,03,43,17.70
2010,04,26,03,44,19.30
2010,04,26,03,45,12.90
2010,04,26,03,46,16.10
2010,04,26,03,47,14.50
2010,04,26,03,48,16.10
2010,04,26,03,49,9.60
2010,04,26,03,50,8.10
2010,04,26,03,51,11.30
2010,04,26,03,52,11.30
2010,04,26,03,53,11.30
2010,04,26,03,54,8.10
2010,04,26,03,55,14.50
2010,04,26,03,56,8.10
2010,04,26,03,57,4.80
2010,04,26,03,58,9.60
2010,04,26,03,59,6.40
2010,04,26,04,00,4.80
2010,04,26,04,01,3.20
2010,04,26,04,02,4.80
2010,04,26,04,03,4.80
2010,04,26,04,04,6.40
2010,04,26,04,05,6.40
2010,04,26,04,06,9.60
2010,04,26,04,07,6.40
2010,04,26,04,08,8.10
2010,04,26,04,09,11.30
2010,04,26,04,10,11.30
2010,04,26,04,11,11.30
2010,04,26,04,12,14.50
2010,04,26,04,13,16.10
2010,04,26,04,14,11.30
2010,04,26,04,15,9.60
2010,04,26,04,16,14.50
2010,04,26,04,17,14.50
2010,04,26,04,18,14.50
2010,04,26,04,19,14.50
2010,04,26,04,20,11.30
2010,04,26,04,21,9.60
2010,04,26,04,22,11.30
2010,04,26,04,23,11.30
2010,04,26,04,24,14.50
2010,04,26,04,25,9.60
2010,04,26,04,26,6.40
2010,04,26,04,27,6.40
2010,04,26,04,28,8.10
2010,04,26,04,29,9.60
2010,04,26,04,30,9.60
2010,04,26,04,31,6.40
2010,04,26,04,32,6.40
2010,04,26,04,33,4.80
2010,04,26,04,35,3.20
2010,04,26,04,38,3.20
2010,04,26,04,39,6.40
2010,04,26,04,40,6.40
2010,04,26,04,41,11.30
2010,04,26,04,42,11.30
2010,04,26,04,43,9.60
2010,04,26,04,44,6.40
2010,04,26,04,45,8.10
2010,04,26,04,46,11.30
2010,04,26,04,47,16.10
2010,04,26,04,48,16.10
2010,04,26,04,49,16.10
2010,04,26,04,50,16.10
2010,04,26,04,51,14.50
2010,04,26,04,52,12.90
2010,04,26,04,53,14.50
2010,04,26,04,54,9.60
2010,04,26,04,55,16.10
2010,04,26,04,56,17.70
2010,04,26,04,57,17.70
2010,04,26,04,58,14.50
2010,04,26,04,59,22.50
2010,04,26,05,00,16.10
2010,04,26,05,01,14.50
2010,04,26,05,02,19.30
2010,04,26,05,03,19.30
2010,04,26,05,04,16.10
2010,04,26,05,05,9.60
2010,04,26,05,06,14.50
2010,04,26,05,07,14.50
2010,04,26,05,08,8.10
2010,04,26,05,09,11.30
2010,04,26,05,10,9.60
2010,04,26,05,11,11.30
2010,04,26,05,12,14.50
2010,04,26,05,13,12.90
2010,04,26,05,14,12.90
2010,04,26,05,15,12.90
2010,04,26,05,16,11.30
2010,04,26,05,17,12.90
2010,04,26,05,18,14.50
2010,04,26,05,19,19.30
2010,04,26,05,20,11.30
2010,04,26,05,21,9.60
2010,04,26,05,22,14.50
2010,04,26,05,23,12.90
2010,04,26,05,24,14.50
2010,04,26,05,25,17.70
2010,04,26,05,26,14.50
2010,04,26,05,27,16.10
2010,04,26,05,28,16.10
2010,04,26,05,29,14.50
2010,04,26,05,30,17.70
2010,04,26,05,31,20.90
2010,04,26,05,32,14.50
2010,04,26,05,33,14.50
2010,04,26,05,34,11.30
2010,04,26,05,35,8.10
2010,04,26,05,36,6.40
2010,04,26,05,37,6.40
2010,04,26,05,38,9.60
2010,04,26,05,39,9.60
2010,04,26,05,40,9.60
2010,04,26,05,41,8.10
2010,04,26,05,42,9.60
2010,04,26,05,43,11.30
2010,04,26,05,44,14.50
2010,04,26,05,45,11.30
2010,04,26,05,46,8.10
2010,04,26,05,47,8.10
2010,04,26,05,48,9.60
2010,04,26,05,49,9.60
2010,04,26,05,50,14.50
2010,04,26,05,51,11.30
2010,04,26,05,52,9.60
2010,04,26,05,53,8.10
2010,04,26,05,54,9.60
2010,04,26,05,55,9.60
2010,04,26,05,56,16.10
2010,04,26,05,57,11.30
2010,04,26,05,58,14.50
2010,04,26,05,59,19.30
2010,04,26,06,00,17.70
2010,04,26,06,01,17.70
2010,04,26,06,02,9.60
2010,04,26,06,03,8.10
2010,04,26,06,04,9.60
2010,04,26,06,05,8.10
2010,04,26,06,06,9.60
2010,04,26,06,07,8.10
2010,04,26,06,08,8.10
2010,04,26,06,09,9.60
2010,04,26,06,10,9.60
2010,04,26,06,11,9.60
2010,04,26,06,12,8.10
2010,04,26,06,13,9.60
2010,04,26,06,14,8.10
2010,04,26,06,15,9.60
2010,04,26,06,16,8.10
2010,04,26,06,17,9.60
2010,04,26,06,18,8.10
2010,04,26,06,19,11.30
2010,04,26,06,20,11.30
2010,04,26,06,21,4.80
2010,04,26,06,22,9.60
2010,04,26,06,23,11.30
2010,04,26,06,24,11.30
2010,04,26,06,25,14.50
2010,04,26,06,26,14.50
2010,04,26,06,27,9.60
2010,04,26,06,28,9.60
2010,04,26,06,29,14.50
2010,04,26,06,30,17.70
2010,04,26,06,31,14.50
2010,04,26,06,32,16.10
2010,04,26,06,33,16.10
2010,04,26,06,34,16.10
2010,04,26,06,35,19.30
2010,04,26,06,36,16.10
2010,04,26,06,37,17.70
2010,04,26,06,38,14.50
2010,04,26,06,39,16.10
2010,04,26,06,40,16.10
2010,04,26,06,41,11.30
2010,04,26,06,42,14.50
2010,04,26,06,43,17.70
2010,04,26,06,44,14.50
2010,04,26,06,45,16.10
2010,04,26,06,46,9.60
2010,04,26,06,47,6.40
2010,04,26,06,48,9.60
2010,04,26,06,49,8.10
2010,04,26,06,50,11.30
2010,04,26,06,51,11.30
2010,04,26,06,52,16.10
2010,04,26,06,53,12.90
2010,04,26,06,54,11.30
2010,04,26,06,55,14.50
2010,04,26,06,56,11.30
2010,04,26,06,57,9.60
2010,04,26,06,58,11.30
2010,04,26,06,59,16.10
2010,04,26,07,00,14.50
2010,04,26,07,01,9.60
2010,04,26,07,02,8.10
2010,04,26,07,03,4.80
2010,04,26,07,04,3.20
2010,04,26,07,05,3.20
2010,04,26,07,06,4.80
2010,04,26,07,07,8.10
2010,04,26,07,08,14.50
2010,04,26,07,09,11.30
2010,04,26,07,10,16.10
2010,04,26,07,11,16.10
2010,04,26,07,12,12.90
2010,04,26,07,13,14.50
2010,04,26,07,14,14.50
2010,04,26,07,15,14.50
2010,04,26,07,16,9.60
2010,04,26,07,17,6.40
2010,04,26,07,18,11.30
2010,04,26,07,19,19.30
2010,04,26,07,20,14.50
2010,04,26,07,21,14.50
2010,04,26,07,22,11.30
2010,04,26,07,23,16.10
2010,04,26,07,24,14.50
2010,04,26,07,25,17.70
2010,04,26,07,26,14.50
2010,04,26,07,27,14.50
2010,04,26,07,28,16.10
2010,04,26,07,29,16.10
2010,04,26,07,30,8.10
2010,04,26,07,31,6.40
2010,04,26,07,32,1.60
2010,04,26,07,33,1.60
2010,04,26,07,34,9.60
2010,04,26,07,35,8.10
2010,04,26,07,36,8.10
2010,04,26,07,37,9.60
2010,04,26,07,38,11.30
2010,04,26,07,39,16.10
2010,04,26,07,40,19.30
2010,04,26,07,41,16.10
2010,04,26,07,42,16.10
2010,04,26,07,43,16.10
2010,04,26,07,44,14.50
2010,04,26,07,45,14.50
2010,04,26,07,46,6.40
2010,04,26,07,47,8.10
2010,04,26,07,48,6.40
2010,04,26,07,49,9.60
2010,04,26,07,50,8.10
2010,04,26,07,51,9.60
2010,04,26,07,52,9.60
2010,04,26,07,53,8.10
2010,04,26,07,54,4.80
2010,04,26,07,58,1.60
2010,04,26,07,59,6.40
2010,04,26,08,00,4.80
2010,04,26,08,01,4.80
2010,04,26,08,02,6.40
2010,04,26,08,03,11.30
2010,04,26,08,04,11.30
2010,04,26,08,05,11.30
2010,04,26,08,06,11.30
2010,04,26,08,07,17.70
2010,04,26,08,08,17.70
2010,04,26,08,09,14.50
2010,04,26,08,10,11.30
2010,04,26,08,11,11.30
2010,04,26,08,12,9.60
2010,04,26,08,13,14.50
2010,04,26,08,14,11.30
2010,04,26,08,15,11.30
2010,04,26,08,16,11.30
2010,04,26,08,17,11.30
2010,04,26,08,18,9.60
2010,04,26,08,19,9.60
2010,04,26,08,20,8.10
2010,04,26,08,21,6.40
2010,04,26,08,22,6.40
2010,04,26,08,23,11.30
2010,04,26,08,24,9.60
2010,04,26,08,25,6.40
2010,04,26,08,26,9.60
2010,04,26,08,27,11.30
2010,04,26,08,28,9.60
2010,04,26,08,29,8.10
2010,04,26,08,30,9.60
2010,04,26,08,31,6.40
2010,04,26,08,32,6.40
2010,04,26,08,33,9.60
2010,04,26,08,34,9.60
2010,04,26,08,35,11.30
2010,04,26,08,36,6.40
2010,04,26,08,37,8.10
2010,04,26,08,38,8.10
2010,04,26,08,39,6.40
2010,04,26,08,40,8.10
2010,04,26,08,41,8.10
2010,04,26,08,42,14.50
2010,04,26,08,43,14.50
2010,04,26,08,44,8.10
2010,04,26,08,45,3.20
2010,04,26,08,47,8.10
2010,04,26,08,48,8.10
2010,04,26,08,49,14.50
2010,04,26,08,50,11.30
2010,04,26,08,51,11.30
2010,04,26,08,52,14.50
2010,04,26,08,53,12.90
2010,04,26,08,54,14.50
2010,04,26,08,55,14.50
2010,04,26,08,56,16.10
2010,04,26,08,57,11.30
2010,04,26,08,58,12.90
2010,04,26,08,59,14.50
2010,04,26,09,00,17.70
2010,04,26,09,01,17.70
2010,04,26,09,02,16.10
2010,04,26,09,03,16.10
2010,04,26,09,04,9.60
2010,04,26,09,05,19.30
2010,04,26,09,06,11.30
2010,04,26,09,07,17.70
2010,04,26,09,08,14.50
2010,04,26,09,09,16.10
2010,04,26,09,10,14.50
2010,04,26,09,11,9.60
2010,04,26,09,12,11.30
2010,04,26,09,13,14.50
2010,04,26,09,14,11.30
2010,04,26,09,15,12.90
2010,04,26,09,16,11.30
2010,04,26,09,17,9.60
2010,04,26,09,18,11.30
2010,04,26,09,19,9.60
2010,04,26,09,20,14.50
2010,04,26,09,21,9.60
2010,04,26,09,22,14.50
2010,04,26,09,23,17.70
2010,04,26,09,24,14.50
2010,04,26,09,25,14.50
2010,04,26,09,26,11.30
2010,04,26,09,27,11.30
2010,04,26,09,28,14.50
2010,04,26,09,29,16.10
2010,04,26,09,30,17.70
2010,04,26,09,31,16.10
2010,04,26,09,32,16.10
2010,04,26,09,33,20.90
2010,04,26,09,34,19.30
2010,04,26,09,35,14.50
2010,04,26,09,36,11.30
2010,04,26,09,37,8.10
2010,04,26,09,38,9.60
2010,04,26,09,39,16.10
2010,04,26,09,40,11.30
2010,04,26,09,41,12.90
2010,04,26,09,42,14.50
2010,04,26,09,43,14.50
2010,04,26,09,44,16.10
2010,04,26,09,45,16.10
2010,04,26,09,46,14.50
2010,04,26,09,47,11.30
2010,04,26,09,48,14.50
2010,04,26,09,49,16.10
2010,04,26,09,50,9.60
2010,04,26,09,51,17.70
2010,04,26,09,52,14.50
2010,04,26,09,53,6.40
2010,04,26,09,54,11.30
2010,04,26,09,55,6.40
2010,04,26,09,56,9.60
2010,04,26,09,57,8.10
2010,04,26,09,58,11.30
2010,04,26,09,59,17.70
2010,04,26,10,00,11.30
2010,04,26,10,01,9.60
2010,04,26,10,02,8.10
2010,04,26,10,03,4.80
2010,04,26,10,04,9.60
2010,04,26,10,05,4.80
2010,04,26,10,06,8.10
2010,04,26,10,07,9.60
2010,04,26,10,08,9.60
2010,04,26,10,09,8.10
2010,04,26,10,10,11.30
2010,04,26,10,11,11.30
2010,04,26,10,12,12.90
2010,04,26,10,13,12.90
2010,04,26,10,14,16.10
2010,04,26,10,15,17.70
2010,04,26,10,16,19.30
2010,04,26,10,17,16.10
2010,04,26,10,18,16.10
2010,04,26,10,19,12.90
2010,04,26,10,20,11.30
2010,04,26,10,21,9.60
2010,04,26,10,22,16.10
2010,04,26,10,23,16.10
2010,04,26,10,24,16.10
2010,04,26,10,25,19.30
2010,04,26,10,26,11.30
2010,04,26,10,27,9.60
2010,04,26,10,28,8.10
2010,04,26,10,29,6.40
2010,04,26,10,30,8.10
2010,04,26,10,31,9.60
2010,04,26,10,32,11.30
2010,04,26,10,33,12.90
2010,04,26,10,34,12.90
2010,04,26,10,35,11.30
2010,04,26,10,36,17.70
2010,04,26,10,37,14.50
2010,04,26,10,38,16.10
2010,04,26,10,39,11.30
2010,04,26,10,40,6.40
2010,04,26,10,41,6.40
2010,04,26,10,42,11.30
2010,04,26,10,43,9.60
2010,04,26,10,44,6.40
2010,04,26,10,45,4.80
2010,04,26,10,46,4.80
2010,04,26,10,48,3.20
2010,04,26,10,49,4.80
2010,04,26,10,50,3.20
2010,04,26,10,51,1.60
2010,04,26,10,52,4.80
2010,04,26,10,53,11.30
2010,04,26,10,54,19.30
2010,04,26,10,55,14.50
2010,04,26,10,56,17.70
2010,04,26,10,57,17.70
2010,04,26,10,58,16.10
2010,04,26,10,59,12.90
2010,04,26,11,00,9.60
2010,04,26,11,01,17.70
2010,04,26,11,02,12.90
2010,04,26,11,03,9.60
2010,04,26,11,04,16.10
2010,04,26,11,05,17.70
2010,04,26,11,06,19.30
2010,04,26,11,07,25.70
2010,04,26,11,08,22.50
2010,04,26,11,09,17.70
2010,04,26,11,10,11.30
2010,04,26,11,11,11.30
2010,04,26,11,12,6.40
2010,04,26,11,13,8.10
2010,04,26,11,14,6.40
2010,04,26,11,15,6.40
2010,04,26,11,16,4.80
2010,04,26,11,17,6.40
2010,04,26,11,18,14.50
2010,04,26,11,19,20.90
2010,04,26,11,20,19.30
2010,04,26,11,21,9.60
2010,04,26,11,22,25.70
2010,04,26,11,23,19.30
2010,04,26,11,24,22.50
2010,04,26,11,25,9.60
2010,04,26,11,26,9.60
2010,04,26,11,27,25.70
2010,04,26,11,28,19.30
2010,04,26,11,29,6.40
2010,04,26,11,30,9.60
2010,04,26,11,31,6.40
2010,04,26,11,32,11.30
2010,04,26,11,33,17.70
2010,04,26,11,34,11.30
2010,04,26,11,35,11.30
2010,04,26,11,36,19.30
2010,04,26,11,37,19.30
2010,04,26,11,38,24.20
2010,04,26,11,39,16.10
2010,04,26,11,40,11.30
2010,04,26,11,41,11.30
2010,04,26,11,42,8.10
2010,04,26,11,43,11.30
2010,04,26,11,44,16.10
2010,04,26,11,45,17.70
2010,04,26,11,46,8.10
2010,04,26,11,47,9.60
2010,04,26,11,48,9.60
2010,04,26,11,49,9.60
2010,04,26,11,50,9.60
2010,04,26,11,51,14.50
2010,04,26,11,52,9.60
2010,04,26,11,53,8.10
2010,04,26,11,54,6.40
2010,04,26,11,55,17.70
2010,04,26,11,56,16.10
2010,04,26,11,57,9.60
2010,04,26,11,58,9.60
2010,04,26,11,59,16.10
2010,04,26,12,00,16.10
2010,04,26,12,01,9.60
2010,04,26,12,02,9.60
2010,04,26,12,03,12.90
2010,04,26,12,04,19.30
2010,04,26,12,05,19.30
2010,04,26,12,06,14.50
2010,04,26,12,07,12.90
2010,04,26,12,08,12.90
2010,04,26,12,09,14.50
2010,04,26,12,10,9.60
2010,04,26,12,11,17.70
2010,04,26,12,12,19.30
2010,04,26,12,13,4.80
2010,04,26,12,14,9.60
2010,04,26,12,15,19.30
2010,04,26,12,16,17.70
2010,04,26,12,17,11.30
2010,04,26,12,18,9.60
2010,04,26,12,19,9.60
2010,04,26,12,20,11.30
2010,04,26,12,21,8.10
2010,04,26,12,22,6.40
2010,04,26,12,23,8.10
2010,04,26,12,24,6.40
2010,04,26,12,25,11.30
2010,04,26,12,26,9.60
2010,04,26,12,27,8.10
2010,04,26,12,28,11.30
2010,04,26,12,29,6.40
2010,04,26,12,30,4.80
2010,04,26,12,31,14.50
2010,04,26,12,32,16.10
2010,04,26,12,33,8.10
2010,04,26,12,34,6.40
2010,04,26,12,35,3.20
2010,04,26,12,36,9.60
2010,04,26,12,37,6.40
2010,04,26,12,38,9.60
2010,04,26,12,39,11.30
2010,04,26,12,40,9.60
2010,04,26,12,41,9.60
2010,04,26,12,42,3.20
2010,04,26,12,44,3.20
2010,04,26,12,45,6.40
2010,04,26,12,46,3.20
2010,04,26,12,47,16.10
2010,04,26,12,48,19.30
2010,04,26,12,49,22.50
2010,04,26,12,50,25.70
2010,04,26,12,51,24.20
2010,04,26,12,52,22.50
2010,04,26,12,53,22.50
2010,04,26,12,54,25.70
2010,04,26,12,55,37.00
2010,04,26,12,56,17.70
2010,04,26,12,57,35.40
2010,04,26,12,58,27.40
2010,04,26,12,59,27.40
2010,04,26,13,00,25.70
2010,04,26,13,01,35.40
2010,04,26,13,02,30.60
2010,04,26,13,03,25.70
2010,04,26,13,04,22.50
2010,04,26,13,05,33.80
2010,04,26,13,06,24.20
2010,04,26,13,07,38.60
2010,04,26,13,08,33.80
2010,04,26,13,09,30.60
2010,04,26,13,10,24.20
2010,04,26,13,11,32.20
2010,04,26,13,12,29.00
2010,04,26,13,13,27.40
2010,04,26,13,14,30.60
2010,04,26,13,15,30.60
2010,04,26,13,16,30.60
2010,04,26,13,17,40.20
2010,04,26,13,18,25.70
2010,04,26,13,19,32.20
2010,04,26,13,20,43.50
2010,04,26,13,21,30.60
2010,04,26,13,22,37.00
2010,04,26,13,23,38.60
2010,04,26,13,24,37.00
2010,04,26,13,25,27.40
2010,04,26,13,26,37.00
2010,04,26,13,27,40.20
2010,04,26,13,28,30.60
2010,04,26,13,29,38.60
2010,04,26,13,30,32.20
2010,04,26,13,31,37.00
2010,04,26,13,32,35.40
2010,04,26,13,33,37.00
2010,04,26,13,34,32.20
2010,04,26,13,35,25.70
2010,04,26,13,36,35.40
2010,04,26,13,37,45.10
2010,04,26,13,38,35.40
2010,04,26,13,39,37.00
2010,04,26,13,40,33.80
2010,04,26,13,41,29.00
2010,04,26,13,42,38.60
2010,04,26,13,43,30.60
2010,04,26,13,44,25.70
2010,04,26,13,45,24.20
2010,04,26,13,46,30.60
2010,04,26,13,47,35.40
2010,04,26,13,48,33.80
2010,04,26,13,49,35.40
2010,04,26,13,50,29.00
2010,04,26,13,51,29.00
2010,04,26,13,52,29.00
2010,04,26,13,53,33.80
2010,04,26,13,54,27.40
2010,04,26,13,55,29.00
2010,04,26,13,56,25.70
2010,04,26,13,57,32.20
2010,04,26,13,58,37.00
2010,04,26,13,59,40.20
2010,04,26,14,00,33.80
2010,04,26,14,01,29.00
2010,04,26,14,02,24.20
2010,04,26,14,03,33.80
2010,04,26,14,04,20.90
2010,04,26,14,05,27.40
2010,04,26,14,06,30.60
2010,04,26,14,07,22.50
2010,04,26,14,08,22.50
2010,04,26,14,09,29.00
2010,04,26,14,10,22.50
2010,04,26,14,11,16.10
2010,04,26,14,12,30.60
2010,04,26,14,13,20.90
2010,04,26,14,14,25.70
2010,04,26,14,15,24.20
2010,04,26,14,16,17.70
2010,04,26,14,17,37.00
2010,04,26,14,18,29.00
2010,04,26,14,19,33.80
2010,04,26,14,20,25.70
2010,04,26,14,21,22.50
2010,04,26,14,22,27.40
2010,04,26,14,23,19.30
2010,04,26,14,24,22.50
2010,04,26,14,25,25.70
2010,04,26,14,26,25.70
2010,04,26,14,27,24.20
2010,04,26,14,28,32.20
2010,04,26,14,29,35.40
2010,04,26,14,30,32.20
2010,04,26,14,31,33.80
2010,04,26,14,32,45.10
2010,04,26,14,33,33.80
2010,04,26,14,34,32.20
2010,04,26,14,35,33.80
2010,04,26,14,36,38.60
2010,04,26,14,37,32.20
2010,04,26,14,38,35.40
2010,04,26,14,39,27.40
2010,04,26,14,40,40.20
2010,04,26,14,41,46.70
2010,04,26,14,42,53.10
2010,04,26,14,43,35.40
2010,04,26,14,44,38.60
2010,04,26,14,45,37.00
2010,04,26,14,46,30.60
2010,04,26,14,47,24.20
2010,04,26,14,48,38.60
2010,04,26,14,49,43.50
2010,04,26,14,50,40.20
2010,04,26,14,51,40.20
2010,04,26,14,52,33.80
2010,04,26,14,53,35.40
2010,04,26,14,54,38.60
2010,04,26,14,55,38.60
2010,04,26,14,56,38.60
2010,04,26,14,57,40.20
2010,04,26,14,58,45.10
2010,04,26,14,59,45.10
2010,04,26,15,00,45.10
2010,04,26,15,01,29.00
2010,04,26,15,02,35.40
2010,04,26,15,03,33.80
2010,04,26,15,04,35.40
2010,04,26,15,05,32.20
2010,04,26,15,06,29.00
2010,04,26,15,07,30.60
2010,04,26,15,08,41.80
2010,04,26,15,09,46.70
2010,04,26,15,10,49.90
2010,04,26,15,11,43.50
2010,04,26,15,12,41.80
2010,04,26,15,13,38.60
2010,04,26,15,14,43.50
2010,04,26,15,15,33.80
2010,04,26,15,16,48.30
2010,04,26,15,17,46.70
2010,04,26,15,18,40.20
2010,04,26,15,19,33.80
2010,04,26,15,20,46.70
2010,04,26,15,21,45.10
2010,04,26,15,22,51.50
2010,04,26,15,23,25.70
2010,04,26,15,24,38.60
2010,04,26,15,25,38.60
2010,04,26,15,26,40.20
2010,04,26,15,27,40.20
2010,04,26,15,28,38.60
2010,04,26,15,29,38.60
2010,04,26,15,30,41.80
2010,04,26,15,31,49.90
2010,04,26,15,32,41.80
2010,04,26,15,33,38.60
2010,04,26,15,34,45.10
2010,04,26,15,35,32.20
2010,04,26,15,36,32.20
2010,04,26,15,37,54.70
2010,04,26,15,38,41.80
2010,04,26,15,39,46.70
2010,04,26,15,40,53.10
2010,04,26,15,41,46.70
2010,04,26,15,42,40.20
2010,04,26,15,43,40.20
2010,04,26,15,44,37.00
2010,04,26,15,45,51.50
2010,04,26,15,46,46.70
2010,04,26,15,47,57.90
2010,04,26,15,48,41.80
2010,04,26,15,49,43.50
2010,04,26,15,50,59.50
2010,04,26,15,51,41.80
2010,04,26,15,52,45.10
2010,04,26,15,53,45.10
2010,04,26,15,54,51.50
2010,04,26,15,55,37.00
2010,04,26,15,56,51.50
2010,04,26,15,57,41.80
2010,04,26,15,58,75.60
2010,04,26,15,59,69.20
2010,04,26,16,00,33.80
2010,04,26,16,01,53.10
2010,04,26,16,02,33.80
2010,04,26,16,03,56.30
2010,04,26,16,04,62.70
2010,04,26,16,05,56.30
2010,04,26,16,06,45.10
2010,04,26,16,07,53.10
2010,04,26,16,08,49.90
2010,04,26,16,09,35.40
2010,04,26,16,10,43.50
2010,04,26,16,11,38.60
2010,04,26,16,12,51.50
2010,04,26,16,13,49.90
2010,04,26,16,14,53.10
2010,04,26,16,15,53.10
2010,04,26,16,16,53.10
2010,04,26,16,17,45.10
2010,04,26,16,18,54.70
2010,04,26,16,19,48.30
2010,04,26,16,20,53.10
2010,04,26,16,21,37.00
2010,04,26,16,22,41.80
2010,04,26,16,23,43.50
2010,04,26,16,24,64.40
2010,04,26,16,25,56.30
2010,04,26,16,26,45.10
2010,04,26,16,27,46.70
2010,04,26,16,28,45.10
2010,04,26,16,29,54.70
2010,04,26,16,30,59.50
2010,04,26,16,31,46.70
2010,04,26,16,32,46.70
2010,04,26,16,33,48.30
2010,04,26,16,34,49.90
2010,04,26,16,35,43.50
2010,04,26,16,36,59.50
2010,04,26,16,37,48.30
2010,04,26,16,38,61.20
2010,04,26,16,39,49.90
2010,04,26,16,40,48.30
2010,04,26,16,41,57.90
2010,04,26,16,42,61.20
2010,04,26,16,43,53.10
2010,04,26,16,44,56.30
2010,04,26,16,45,61.20
2010,04,26,16,46,51.50
2010,04,26,16,47,45.10
2010,04,26,16,48,53.10
2010,04,26,16,49,80.50
2010,04,26,16,50,62.70
2010,04,26,16,51,61.20
2010,04,26,16,52,61.20
2010,04,26,16,53,53.10
2010,04,26,16,54,56.30
2010,04,26,16,55,48.30
2010,04,26,16,56,51.50
2010,04,26,16,57,49.90
2010,04,26,16,58,56.30
2010,04,26,16,59,56.30
2010,04,26,17,00,40.20
2010,04,26,17,01,45.10
2010,04,26,17,02,54.70
2010,04,26,17,03,53.10
2010,04,26,17,04,48.30
2010,04,26,17,05,46.70
2010,04,26,17,06,53.10
2010,04,26,17,07,54.70
2010,04,26,17,08,59.50
2010,04,26,17,09,54.70
2010,04,26,17,10,56.30
2010,04,26,17,11,62.70
2010,04,26,17,12,57.90
2010,04,26,17,13,53.10
2010,04,26,17,14,53.10
2010,04,26,17,15,57.90
2010,04,26,17,16,57.90
2010,04,26,17,17,56.30
2010,04,26,17,18,53.10
2010,04,26,17,19,54.70
2010,04,26,17,20,51.50
2010,04,26,17,21,45.10
2010,04,26,17,22,67.60
2010,04,26,17,23,66.00
2010,04,26,17,24,38.60
2010,04,26,17,25,66.00
2010,04,26,17,26,66.00
2010,04,26,17,27,51.50
2010,04,26,17,28,56.30
2010,04,26,17,29,62.70
2010,04,26,17,30,51.50
2010,04,26,17,31,56.30
2010,04,26,17,32,54.70
2010,04,26,17,33,48.30
2010,04,26,17,34,53.10
2010,04,26,17,35,61.20
2010,04,26,17,36,53.10
2010,04,26,17,37,56.30
2010,04,26,17,38,53.10
2010,04,26,17,39,59.50
2010,04,26,17,40,53.10
2010,04,26,17,41,53.10